C/2020 K2 ( PanSTARRS )

Japanese version
Home page
Updated on September 6, 2020

---------------------------------------------------------------------

* Profile

Discovery Date May 21, 2020
Magnitude 20.5 mag
Discoverer Pan-STARRS 1 telescope (Haleakala)

* Pictures

* Orbital Elements

Epoch 2020 Aug. 19.0 TT = JDT 2459080.5
T 2020 Aug. 4.07140 TT                                  Rudenko
q   8.8781078            (2000.0)            P               Q
z  -0.0001471      Peri.   67.23853     +0.10590692     -0.29673498
 +/-0.0000215      Node   288.33674     -0.70849340     +0.64718332
e   1.0013059      Incl.   91.03501     +0.69772546     +0.70221229
From 69 observations 2020 May 21-Aug. 27, mean residual 0".4.

* Magnitudes Graph

        m1 = 6.0 + 5 log d + 10.0 log r

---------------------------------------------------------------------

The orbital elements are published on M.P.E.C. 2020-R04.
The magnitudes graphs are made with Comet for Windows.

---------------------------------------------------------------------

Copyright(C) Seiichi Yoshida (comet@aerith.net). All rights reserved.